Retour au catalogue

STARLINK-35575

ActifCommunicationsVLEO
NORAD 66165·PAYLOAD·🇺🇸 United States

Lancé Oct 25, 2025 depuis Cape Canaveral Space Force Station

Loading…

Prochains Passages (prochaines 24 heures)

TLE

FraisSource: CelesTrak SupGP

Époque: Sep 14, 2026, 15:21 UTC

1 66165C 25240V   26257.64006944 -.00025139  00000+0 -74302-3 0  2579
2 66165  53.1571 261.1172 0001182  79.8458 310.6653 15.34391046    12

Suivez STARLINK-35575 en temps réel avec AllMySat

Download on the App Store